{"data":{"norad_id":68929,"intl_designator":"2026-098L","name":"KUIPER-00414","alt_names":[],"object_type":"PAYLOAD","status":"ACTIVE","operator":null,"country":"US","launch_date":"2026-04-30","launch_site_code":"FRGUI","launch_vehicle":null,"mission":null,"orbit_class":"UNKNOWN","rcs_meters":null,"size_class":null,"mass_kg":null,"dimensions":null,"purposes":[],"wikipedia_slug":null,"has_3d_model":false,"image_url":null,"decayed_at":null,"tle_current":{"epoch":"2026-09-19T19:12:03.220992Z","epoch_age_seconds":75948,"freshness":"FRESH","line1":"1 68929U 26098L   26262.80003728  .00000635  00000+0  11226-3 0  9993","line2":"2 68929  51.8990  12.3571 0001235 138.8572 221.2484 14.79929355 21316","mean_motion":14.79929355,"eccentricity":0.0001235,"inclination_deg":51.899,"raan_deg":12.3571,"arg_perigee_deg":138.8572,"mean_anomaly_deg":221.2484,"bstar":0.00011226,"rev_number":2131,"period_min":97.301941821405,"perigee_km":628.68168656963,"apogee_km":630.41258455112,"semimajor_km":7007.6841355604,"source":"CELESTRAK","updated_at":"2026-09-20T09:00:24.555549Z"}}}